Location: Namasale
(1.5000°N, 32.6167°E)
Time: 09:44:37
(UTC+00:00)

Courier 1B - Pass Details

Date: 25 April 2021
Orbit: 962 x 1209 km, 28.3° (Epoch: 15 May)

Event Time Altitude Azimuth Distance (km) Brightness Sun altitude
Rises 05:17:34 0° 250° (WSW) 4,078 10.1 22.2°
Reaches altitude 10° 05:20:32 10° 254° (WSW) 3,092 9.6 23.0°
Maximum altitude 05:28:00 55° 330° (NNW) 1,337 8.5 24.8°
Drops below altitude 10° 05:35:03 10° 47° (NE) 2,922 11.1 26.5°
Sets 05:37:47 0° 51° (NE) 3,839 11.6 27.1°
